Weather Roundup
Issued by NWS Springfield, MO

Home | Current Version | Previous Version | Text Only | Print | Product List | Glossary On
Versions: 1 2 3 4 5 6 7 8 9 10 11 12 13 14 15 16 17 18 19 20 21 22 23 24 25 26 27 28 29 30 31 32 33 34 35 36 37 38 39 40 41 42 43 44 45 46 47 48 49 50
000
NZUS99 KSGF 240557
HRRSGF

HOURLY WEATHER
NATIONAL WEATHER SERVICE SPRINGFIELD MO
100 AM CDT SAT JUN 24 2017

......SGF CWA......

CITY           SKY/WX    TMP DP  RH WIND       PRES   REMARKS
SPRINGFIELD    CLEAR     63  56  78 N7        30.08R
6HR MIN TEMP:  63; 6HR MAX TEMP:  80;

WEST PLAINS    CLOUDY    65  59  81 N5        30.05R
6HR MIN TEMP:  62; 6HR MAX TEMP:  72;

ROLLA          CLEAR     63  54  72 NW6       30.04R
6HR MIN TEMP:  63; 6HR MAX TEMP:  79;


......SURROUNDING SGF CWA......

CITY           SKY/WX    TMP DP  RH WIND       PRES   REMARKS
CHANUTE        CLEAR     68  54  60 NE6       30.11R
PARSONS        CLOUDY    71  52  50 N5        30.10R
COFFEYVILLE    CLOUDY    67  55  65 NE6       30.08S
EMPORIA        CLEAR     62  56  80 NW3       30.13R
HARRISON AR    CLOUDY    63  63 100 NW3       30.07R

......KANSAS AND MISSOURI......

CITY           SKY/WX    TMP DP  RH WIND       PRES   REMARKS
KANSAS CTY INT CLEAR     62  55  77 W6        30.11R
SEDALIA        CLEAR     64  58  80 NW7       30.07S
ST JOSEPH      CLEAR     59  55  87 CALM      30.11R
ST LOUIS       PTCLDY    71  55  56 N8        29.99R
WICHITA        MOCLDY    68  55  63 CALM      30.13R
TOPEKA         CLEAR     63  58  83 NW5       30.12R
OLATHE         CLEAR     66  54  65 NW6       30.10R

......TENNESSEE......

CITY           SKY/WX    TMP DP  RH WIND       PRES   REMARKS
MEMPHIS        NOT AVBL
NASHVILLE      CLOUDY    77  71  82 NW10      29.91R

......ARKANSAS.......

CITY           SKY/WX    TMP DP  RH WIND       PRES   REMARKS
FAYETTEVILLE   CLOUDY    64  63  96 CALM      30.07R
FT SMITH       CLOUDY    72  69  90 CALM      30.03R
LITTLE ROCK    CLOUDY    71  71 100 W3        29.99R

......OKLAHOMA.......

CITY           SKY/WX    TMP DP  RH WIND       PRES   REMARKS
TULSA          CLOUDY    73  58  59 N9        30.06R
PONCA CITY     CLOUDY    67  55  65 N6        30.09S
MCALESTER      CLOUDY    76  66  71 VRB6      30.03S
OKLAHOMA CITY  MOCLDY    73  56  54 NE12      30.08R

......IOWA............

CITY           SKY/WX    TMP DP  RH WIND       PRES   REMARKS
DES MOINES     NOT AVBL
QUAD CITIES    CLEAR     65  55  70 W9        29.96R

......ILLINOIS........

CITY           SKY/WX    TMP DP  RH WIND       PRES   REMARKS
QUINCY         CLEAR     63  56  78 W7        30.00R
CHICAGO        CLEAR     66  54  65 W9        29.86R




USA.gov is the U.S. government's official web portal to all federal, state and local government web resources and services.